User: anonymous   Login
Location: Theydon Bois
(51.6750°N, 0.1050°E)
Time: 18:38:55
(UTC+01:00)
Language:

Cosmos 1842 Rocket - Orbit

View from above orbital plane
View from above orbital plane
View from above satellite
View from above satellite

Ground track
Ground track

The orbit data is extracted from the following two-line orbital elements,

1 17912U 87038B   18227.91468281 +.00000048 +00000-0 +30373-5 0  9998
2 17912 082.5029 011.8502 0018700 272.1887 087.7186 14.82982782669599
Epoch (UTC): 15 August 2018 21:57:08
Eccentricity: 0.0018700
inclination: 82.5029°
perigee height: 607 km
apogee height: 633 km
right ascension of ascending node: 11.8502°
argument of perigee: 272.1887°
revolutions per day: 14.82982782
mean anomaly at epoch: 87.7186°
orbit number at epoch: 66959

The dashed part of the orbit path shows where the satellite is in the earth's shadow,  

DLR